DW1970 Weather Reports


Display with metric or nautical units.
time (UTC)temp
F
wind
direction
speed
MPH
gust
MPH
rain 1hr
in
rain 24hr
in
rain mn
in
humidity
%
barometer
mb
20260905140041 54 134 0.0 0.0 0.00 0.00 0.00 90 1014.3
20260905134539 54 100 0.0 0.0 0.00 0.01 0.00 90 1014.3
20260905133039 54 99 0.0 0.0 0.00 0.01 0.00 89 1014.3
20260905131553 54 94 0.0 0.0 0.00 0.01 0.00 89 1014.1
20260905130038 55 110 0.0 0.0 0.00 0.01 0.00 88 1014.0
20260905124546 55 111 0.0 0.0 0.00 0.01 0.00 88 1014.2
20260905123045 55 111 0.0 0.0 0.00 0.01 0.00 88 1014.1
20260905121536 55 111 0.0 0.0 0.00 0.01 0.00 88 1014.2
20260905120035 55 115 0.0 0.0 0.00 0.01 0.00 89 1014.1
20260905114540 54 138 0.0 0.0 0.00 0.01 0.00 88 1014.2
20260905113039 55 110 0.0 0.0 0.00 0.01 0.00 89 1014.2
20260905111538 55 125 0.0 0.0 0.00 0.01 0.00 88 1014.4
20260905110030 55 124 0.0 0.0 0.00 0.01 0.00 87 1014.3
20260905104530 56 127 0.0 0.0 0.00 0.01 0.00 88 1014.3
20260905103032 56 128 0.0 0.0 0.00 0.01 0.00 88 1014.3
20260905101537 55 127 0.0 0.0 0.00 0.01 0.00 89 1014.3
20260905100027 55 122 0.0 0.0 0.00 0.01 0.00 89 1014.3
20260905094526 56 111 0.0 0.0 0.00 0.01 0.00 89 1014.4
20260905093024 56 110 0.0 0.0 0.00 0.01 0.00 89 1014.6
20260905091523 56 110 0.0 0.0 0.00 0.01 0.00 88 1014.6
20260905090028 56 111 0.0 0.0 0.00 0.01 0.00 89 1014.8
20260905084550 56 111 0.0 0.0 0.00 0.01 0.00 90 1014.9
20260905083022 56 110 0.0 2.0 0.00 0.01 0.00 90 1014.9
20260905081518 56 110 0.0 0.0 0.00 0.01 0.00 92 1014.9
20260905080016 55 111 0.0 0.0 0.00 0.01 0.00 93 1014.9
20260905074515 55 112 0.0 0.0 0.00 0.01 0.00 93 1014.9
20260905073017 55 130 0.0 0.0 0.00 0.01 0.00 93 1014.9
20260905071512 55 114 0.0 0.0 0.00 0.01 0.00 94 1014.8
20260905070009 55 119 0.0 0.0 0.00 0.01 0.00 94 1014.8
20260905064509 55 89 0.0 1.0 0.00 0.01 0.01 94 1014.7
20260905063009 56 77 0.0 0.0 0.00 0.01 0.01 94 1014.7
20260905061508 56 77 0.0 0.0 0.00 0.01 0.01 94 1014.6
20260905060008 56 15 0.0 0.0 0.00 0.01 0.01 95 1014.6
20260905054511 57 355 0.0 0.0 0.00 0.01 0.01 95 1014.8
20260905053007 57 355 0.0 0.0 0.00 0.01 0.01 95 1014.8
20260905051506 57 25 0.0 0.0 0.00 0.01 0.01 95 1015.0
20260905050006 57 12 0.0 6.0 0.00 0.01 0.01 95 1015.1
20260905044505 58 27 0.0 4.0 0.00 0.01 0.01 95 1015.1
20260905043005 58 16 0.0 0.0 0.00 0.01 0.01 95 1014.9
20260905041503 58 9 0.0 0.0 0.00 0.01 0.01 95 1014.8
20260905040058 58 347 0.0 2.0 0.00 0.01 0.01 94 1014.7
20260905034554 58 348 0.0 3.0 0.00 0.02 0.01 94 1014.7
20260905033054 58 356 0.0 0.0 0.00 0.02 0.01 94 1014.5
20260905031549 58 354 0.0 3.0 0.00 0.02 0.01 94 1014.6
20260905030041 59 354 0.0 0.0 0.00 0.02 0.01 93 1014.6
20260905024546 59 350 0.0 3.0 0.00 0.02 0.01 92 1014.6
20260905023037 60 6 0.0 5.0 0.00 0.02 0.01 91 1014.6
20260905021529 61 331 0.0 6.0 0.00 0.02 0.01 90 1014.6
20260905020023 62 350 0.0 1.0 0.00 0.02 0.01 89 1014.6
20260905014518 62 323 0.0 9.0 0.00 0.02 0.01 88 1014.7
20260905013014 63 355 0.0 5.0 0.00 0.02 0.01 88 1014.7
20260905011511 63 314 0.0 7.0 0.00 0.02 0.01 87 1014.7
20260905010005 63 314 0.0 11.0 0.00 0.02 0.01 88 1014.7
20260905004501 64 330 0.0 9.0 0.00 0.02 0.01 87 1014.7
20260905003057 64 330 0.0 6.0 0.00 0.02 0.01 87 1014.8
20260905001552 64 302 0.0 10.0 0.00 0.02 0.01 87 1014.7
20260905000048 65 331 0.0 8.0 0.00 0.02 0.01 87 1014.8
20260904234548 65 327 1.0 5.0 0.00 0.02 0.01 87 1014.8
20260904233055 64 323 0.0 8.0 0.00 0.02 0.01 87 1014.8
20260904231542 64 296 0.0 6.0 0.00 0.02 0.01 87 1014.8
20260904230038 65 304 0.0 9.0 0.00 0.02 0.01 87 1014.7
20260904224541 64 1 1.0 9.0 0.00 0.02 0.01 86 1014.8
20260904223037 65 288 0.0 6.0 0.00 0.02 0.01 86 1015.0
20260904221524 64 295 0.0 10.0 0.00 0.02 0.01 86 1015.0
20260904220023 64 346 2.0 11.0 0.00 0.02 0.01 86 1015.0
20260904214534 64 304 2.0 12.0 0.00 0.02 0.01 83 1015.1
20260904213015 64 333 2.0 11.0 0.00 0.02 0.01 85 1015.0
20260904211514 64 338 1.0 11.0 0.00 0.02 0.01 85 1015.1
20260904210008 64 267 0.0 6.0 0.00 0.02 0.01 84 1015.0
20260904204504 64 302 0.0 9.0 0.00 0.02 0.01 84 1014.9
20260904203100 64 350 0.0 1.0 0.00 0.02 0.01 84 1015.0
20260904201602 64 327 1.0 8.0 0.00 0.02 0.01 84 1015.0
20260904200056 63 338 2.0 8.0 0.00 0.02 0.01 83 1015.0
20260904194547 62 288 0.0 3.0 0.00 0.02 0.01 83 1015.0
20260904193047 63 304 0.0 3.0 0.00 0.02 0.01 84 1015.0
20260904191538 62 351 0.0 0.0 0.00 0.02 0.01 84 1015.1
20260904190035 62 308 0.0 0.0 0.00 0.02 0.01 84 1015.1
20260904184529 61 301 0.0 0.0 0.00 0.02 0.01 84 1015.2
20260904183025 61 301 0.0 2.0 0.00 0.02 0.01 84 1015.1
20260904181521 61 337 0.0 2.0 0.00 0.02 0.01 87 1014.9
20260904180017 60 337 0.0 0.0 0.00 0.02 0.01 89 1015.0
20260904174513 60 331 0.0 2.0 0.00 0.02 0.01 91 1014.9
20260904173008 59 281 0.0 1.0 0.00 0.02 0.01 93 1014.9
20260904171508 59 341 0.0 1.0 0.00 0.02 0.01 93 1014.8
20260904170002 59 323 0.0 0.0 0.00 0.02 0.01 95 1014.6
20260904164605 58 325 0.0 0.0 0.00 0.04 0.01 96 1014.6
20260904163106 57 354 0.0 1.0 0.00 0.04 0.01 96 1014.5
20260904161601 57 5 0.0 0.0 0.00 0.04 0.01 97 1014.4
20260904160058 57 13 0.0 2.0 0.00 0.04 0.01 97 1014.4
20260904154558 57 22 0.0 0.0 0.00 0.04 0.01 97 1014.4
20260904153105 56 112 0.0 0.0 0.00 0.04 0.01 97 1014.5
20260904151555 56 112 0.0 0.0 0.00 0.04 0.01 98 1014.4
20260904150053 55 112 0.0 0.0 0.00 0.04 0.01 97 1014.1
20260904144550 55 112 0.0 0.0 0.00 0.06 0.01 98 1013.8
20260904143049 53 112 0.0 0.0 0.01 0.06 0.01 97 1013.6
20260904141608 53 112 0.0 0.0 0.01 0.06 0.01 97 1013.6